Regional Weather Roundup
Issued by NWS

Home | Current Version | Previous Version | Text Only | Print | Product List | Glossary Off
Versions: 1 2 3 4 5 6 7 8 9 10 11 12 13 14 15 16 17 18 19 20 21 22 23 24 25 26 27 28 29 30 31 32 33 34 35 36 37 38 39 40 41 42 43 44 45 46 47 48 49 50

000
ASUS45 KCYS 281610
RWRWY

WYOMING REGIONAL WEATHER ROUNDUP
NATIONAL WEATHER SERVICE CHEYENNE WY
1000 AM MDT WED SEP 28 2016

NOTE:  "FAIR" INDICATES FEW OR NO CLOUDS BELOW 12,000 FEET
WITH NO SIGNIFICANT WEATHER AND/OR OBSTRUCTIONS TO VISIBILITY.

WYZ001-281700-
YELLOWSTONE NATIONAL PARK

CITY           SKY/WX    TMP DP  RH WIND       PRES   REMARKS
LK YELLOWSTONE   N/A     50  43  77 E3        30.44R
W YELLOWSTONE  NOT AVBL

$$
WYZ002>013-054>058-071-098>099-281700-
NORTHERN WYOMING

CITY           SKY/WX    TMP DP  RH WIND       PRES   REMARKS
JACKSON        SUNNY     48  37  66 CALM      30.39S
CODY           FAIR      57  45  64 NE6       30.34S
GREYBULL       FAIR      57  49  74 CALM      30.29R
WORLAND        FAIR      56  48  74 CALM      30.28R
SHERIDAN       FAIR      64  47  53 N3        30.30S
BUFFALO        FAIR      70  43  37 CALM      30.35R
GILLETTE       FAIR      70  48  45 CALM      30.31R
HULETT         FAIR      63  48  59 CALM      30.32R
NEWCASTLE      FAIR      63  41  45 S6        30.32R

$$
WYZ014>020-022>026-101>103-281700-
CENTRAL WYOMING

CITY           SKY/WX    TMP DP  RH WIND       PRES   REMARKS
BIG PINEY      FAIR      51  35  54 CALM      30.42S
PINEDALE       FAIR      54  36  50 NW3       30.43R
DUBOIS         FAIR      52  34  50 NW3       30.43S
LANDER         FAIR      59  38  45 SE6       30.35R
RIVERTON       FAIR      58  45  62 VRB3      30.36R
CASPER         FAIR      59  42  53 CALM      30.36R
DOUGLAS          N/A     59  42  53 MISG      30.36R

$$
WYZ021-027>030-104>119-281700-
SOUTHERN WYOMING

CITY           SKY/WX    TMP DP  RH WIND       PRES   REMARKS
EVANSTON       FAIR      57  36  45 E10       30.37R
FORT BRIDGER   SUNNY     57  39  51 N3        30.41S
ROCK SPRINGS   FAIR      57  39  51 E8        30.39R
DIXON          FAIR      58  35  41 CALM      30.40S
RAWLINS        FAIR      57  31  37 NE5       30.41R
SARATOGA       FAIR      54  36  50 N7        30.42S
LARAMIE        FAIR      56  34  43 SW3       30.44R
CHEYENNE       FAIR      68  36  30 NE8       30.40R
TORRINGTON     FAIR      64  44  48 CALM      30.31R
PINE BLUFFS    FAIR      66  36  32 NE7       30.36S

$$



USA.gov is the U.S. government's official web portal to all federal, state and local government web resources and services.